TimeCDT,TemperatureF,Dew PointF,Humidity,Sea Level PressureIn,VisibilityMPH,Wind Direction,Wind SpeedMPH,Gust SpeedMPH,PrecipitationIn,Events,Conditions,WindDirDegrees,DateUTC
12:58 AM,64.2,62.4,94,30.12,10.0,ENE,4.6,-,N/A,,Clear,60,2013-08-14 05:58:00
1:58 AM,63.5,61.7,94,30.12,10.0,NE,5.8,-,N/A,,Clear,50,2013-08-14 06:58:00
2:58 AM,62.6,61.0,94,30.12,10.0,ENE,6.9,-,N/A,,Clear,70,2013-08-14 07:58:00
3:58 AM,61.2,59.2,93,30.13,10.0,ENE,5.8,-,N/A,,Clear,60,2013-08-14 08:58:00
4:58 AM,60.1,57.2,90,30.14,10.0,NE,5.8,-,N/A,,Clear,50,2013-08-14 09:58:00
5:58 AM,59.0,55.8,89,30.16,10.0,ENE,5.8,-,N/A,,Clear,60,2013-08-14 10:58:00
6:58 AM,58.1,55.8,92,30.18,10.0,ENE,5.8,-,N/A,,Clear,70,2013-08-14 11:58:00
7:58 AM,60.6,54.9,81,30.18,10.0,East,5.8,-,N/A,,Clear,80,2013-08-14 12:58:00
8:58 AM,63.1,54.1,72,30.18,10.0,East,9.2,-,N/A,,Clear,90,2013-08-14 13:58:00
9:58 AM,66.2,54.1,65,30.19,10.0,ESE,8.1,-,N/A,,Clear,110,2013-08-14 14:58:00
10:58 AM,69.1,53.6,58,30.20,10.0,Variable,5.8,-,N/A,,Clear,0,2013-08-14 15:58:00
11:58 AM,69.6,52.7,55,30.20,10.0,NE,8.1,-,N/A,,Clear,50,2013-08-14 16:58:00
12:58 PM,71.1,53.4,54,30.18,10.0,NE,8.1,-,N/A,,Partly Cloudy,40,2013-08-14 17:58:00
1:58 PM,71.8,52.9,51,30.17,10.0,Variable,3.5,-,N/A,,Clear,0,2013-08-14 18:58:00
2:58 PM,72.1,53.8,52,30.16,10.0,Variable,5.8,-,N/A,,Clear,0,2013-08-14 19:58:00
3:58 PM,72.9,55.0,53,30.14,10.0,NNE,6.9,-,N/A,,Scattered Clouds,20,2013-08-14 20:58:00
4:58 PM,73.2,54.9,52,30.13,10.0,East,6.9,-,N/A,,Clear,80,2013-08-14 21:58:00
5:58 PM,71.6,54.1,54,30.13,10.0,ENE,5.8,-,N/A,,Clear,70,2013-08-14 22:58:00
6:58 PM,69.6,54.7,59,30.12,10.0,NE,4.6,-,N/A,,Clear,40,2013-08-14 23:58:00
7:58 PM,66.7,54.7,65,30.12,10.0,NE,4.6,-,N/A,,Clear,50,2013-08-15 00:58:00
8:58 PM,64.2,55.2,73,30.12,10.0,ENE,3.5,-,N/A,,Clear,70,2013-08-15 01:58:00
9:58 PM,62.6,56.1,79,30.16,10.0,East,3.5,-,N/A,,Clear,80,2013-08-15 02:58:00
10:58 PM,61.5,55.8,81,30.16,10.0,ESE,4.6,-,N/A,,Clear,120,2013-08-15 03:58:00
11:58 PM,59.7,56.5,89,30.17,10.0,ESE,4.6,-,N/A,,Mostly Cloudy,110,2013-08-15 04:58:00